Year,Month,Day,Hour,Minute,Value (Times are PST for temperature in C)
2016,08,12,00,00,16.30
2016,08,12,00,01,16.30
2016,08,12,00,02,16.30
2016,08,12,00,03,16.20
2016,08,12,00,04,16.30
2016,08,12,00,05,16.30
2016,08,12,00,06,16.30
2016,08,12,00,07,16.30
2016,08,12,00,08,16.30
2016,08,12,00,09,16.20
2016,08,12,00,10,16.20
2016,08,12,00,11,16.20
2016,08,12,00,12,16.20
2016,08,12,00,13,16.20
2016,08,12,00,14,16.20
2016,08,12,00,15,16.20
2016,08,12,00,16,16.30
2016,08,12,00,17,16.30
2016,08,12,00,18,16.30
2016,08,12,00,19,16.30
2016,08,12,00,20,16.30
2016,08,12,00,21,16.30
2016,08,12,00,22,16.30
2016,08,12,00,23,16.40
2016,08,12,00,24,16.40
2016,08,12,00,25,16.40
2016,08,12,00,26,16.40
2016,08,12,00,27,16.40
2016,08,12,00,28,16.30
2016,08,12,00,29,16.30
2016,08,12,00,30,16.30
2016,08,12,00,31,16.30
2016,08,12,00,32,16.30
2016,08,12,00,33,16.30
2016,08,12,00,34,16.30
2016,08,12,00,35,16.30
2016,08,12,00,36,16.30
2016,08,12,00,37,16.30
2016,08,12,00,38,16.30
2016,08,12,00,39,16.30
2016,08,12,00,40,16.20
2016,08,12,00,41,16.20
2016,08,12,00,42,16.20
2016,08,12,00,43,16.20
2016,08,12,00,44,16.10
2016,08,12,00,45,16.10
2016,08,12,00,46,16.10
2016,08,12,00,47,16.10
2016,08,12,00,48,16.00
2016,08,12,00,49,16.00
2016,08,12,00,50,16.00
2016,08,12,00,51,16.00
2016,08,12,00,52,15.90
2016,08,12,00,53,15.90
2016,08,12,00,54,15.90
2016,08,12,00,55,15.90
2016,08,12,00,56,15.90
2016,08,12,00,57,15.90
2016,08,12,00,58,15.90
2016,08,12,00,59,15.90
2016,08,12,01,00,15.90
2016,08,12,01,01,15.90
2016,08,12,01,02,15.90
2016,08,12,01,03,15.90
2016,08,12,01,04,15.90
2016,08,12,01,05,15.90
2016,08,12,01,06,15.90
2016,08,12,01,07,15.90
2016,08,12,01,08,15.90
2016,08,12,01,09,15.90
2016,08,12,01,10,15.90
2016,08,12,01,11,15.90
2016,08,12,01,12,15.90
2016,08,12,01,13,15.90
2016,08,12,01,14,15.80
2016,08,12,01,15,15.80
2016,08,12,01,16,15.80
2016,08,12,01,17,15.80
2016,08,12,01,18,15.80
2016,08,12,01,19,15.80
2016,08,12,01,20,15.80
2016,08,12,01,21,15.70
2016,08,12,01,22,15.70
2016,08,12,01,23,15.70
2016,08,12,01,24,15.60
2016,08,12,01,25,15.60
2016,08,12,01,26,15.60
2016,08,12,01,27,15.60
2016,08,12,01,28,15.60
2016,08,12,01,29,15.60
2016,08,12,01,30,15.60
2016,08,12,01,31,15.60
2016,08,12,01,32,15.60
2016,08,12,01,33,15.60
2016,08,12,01,34,15.60
2016,08,12,01,35,15.60
2016,08,12,01,36,15.60
2016,08,12,01,37,15.60
2016,08,12,01,38,15.60
2016,08,12,01,39,15.60
2016,08,12,01,40,15.60
2016,08,12,01,41,15.70
2016,08,12,01,42,15.70
2016,08,12,01,43,15.70
2016,08,12,01,44,15.70
2016,08,12,01,45,15.70
2016,08,12,01,46,15.60
2016,08,12,01,47,15.60
2016,08,12,01,48,15.60
2016,08,12,01,49,15.60
2016,08,12,01,50,15.60
2016,08,12,01,51,15.60
2016,08,12,01,52,15.60
2016,08,12,01,53,15.60
2016,08,12,01,54,15.60
2016,08,12,01,55,15.60
2016,08,12,01,56,15.60
2016,08,12,01,57,15.50
2016,08,12,01,58,15.50
2016,08,12,01,59,15.50
2016,08,12,02,00,15.50
2016,08,12,02,01,15.50
2016,08,12,02,02,15.50
2016,08,12,02,03,15.50
2016,08,12,02,04,15.50
2016,08,12,02,05,15.50
2016,08,12,02,06,15.50
2016,08,12,02,07,15.50
2016,08,12,02,08,15.50
2016,08,12,02,09,15.50
2016,08,12,02,10,15.50
2016,08,12,02,11,15.50
2016,08,12,02,12,15.40
2016,08,12,02,13,15.40
2016,08,12,02,14,15.40
2016,08,12,02,15,15.40
2016,08,12,02,16,15.40
2016,08,12,02,17,15.40
2016,08,12,02,18,15.40
2016,08,12,02,19,15.40
2016,08,12,02,20,15.40
2016,08,12,02,21,15.40
2016,08,12,02,22,15.40
2016,08,12,02,23,15.30
2016,08,12,02,24,15.30
2016,08,12,02,25,15.30
2016,08,12,02,26,15.30
2016,08,12,02,27,15.30
2016,08,12,02,28,15.30
2016,08,12,02,29,15.30
2016,08,12,02,30,15.30
2016,08,12,02,31,15.20
2016,08,12,02,32,15.20
2016,08,12,02,33,15.20
2016,08,12,02,34,15.20
2016,08,12,02,35,15.20
2016,08,12,02,36,15.20
2016,08,12,02,37,15.20
2016,08,12,02,38,15.20
2016,08,12,02,39,15.20
2016,08,12,02,40,15.20
2016,08,12,02,41,15.20
2016,08,12,02,42,15.20
2016,08,12,02,43,15.20
2016,08,12,02,44,15.20
2016,08,12,02,45,15.20
2016,08,12,02,46,15.20
2016,08,12,02,47,15.10
2016,08,12,02,48,15.00
2016,08,12,02,49,15.00
2016,08,12,02,50,14.90
2016,08,12,02,51,14.90
2016,08,12,02,52,14.90
2016,08,12,02,53,14.90
2016,08,12,02,54,14.90
2016,08,12,02,55,14.90
2016,08,12,02,56,14.90
2016,08,12,02,57,14.90
2016,08,12,02,58,14.90
2016,08,12,02,59,14.90
2016,08,12,03,00,14.90
2016,08,12,03,01,14.90
2016,08,12,03,02,14.90
2016,08,12,03,03,14.90
2016,08,12,03,04,14.90
2016,08,12,03,05,14.90
2016,08,12,03,06,14.90
2016,08,12,03,07,14.90
2016,08,12,03,08,14.90
2016,08,12,03,09,14.90
2016,08,12,03,10,14.90
2016,08,12,03,11,14.90
2016,08,12,03,12,14.90
2016,08,12,03,13,14.80
2016,08,12,03,14,14.80
2016,08,12,03,15,14.80
2016,08,12,03,16,14.70
2016,08,12,03,17,14.70
2016,08,12,03,18,14.70
2016,08,12,03,19,14.70
2016,08,12,03,20,14.70
2016,08,12,03,21,14.70
2016,08,12,03,22,14.70
2016,08,12,03,23,14.70
2016,08,12,03,24,14.70
2016,08,12,03,25,14.80
2016,08,12,03,26,14.80
2016,08,12,03,27,14.80
2016,08,12,03,28,14.80
2016,08,12,03,29,14.80
2016,08,12,03,30,14.80
2016,08,12,03,31,14.80
2016,08,12,03,32,14.70
2016,08,12,03,33,14.70
2016,08,12,03,34,14.70
2016,08,12,03,35,14.70
2016,08,12,03,36,14.70
2016,08,12,03,37,14.70
2016,08,12,03,38,14.70
2016,08,12,03,39,14.70
2016,08,12,03,40,14.70
2016,08,12,03,41,14.80
2016,08,12,03,42,14.80
2016,08,12,03,43,14.80
2016,08,12,03,44,14.80
2016,08,12,03,45,14.80
2016,08,12,03,46,14.70
2016,08,12,03,47,14.70
2016,08,12,03,48,14.70
2016,08,12,03,49,14.70
2016,08,12,03,50,14.70
2016,08,12,03,51,14.70
2016,08,12,03,52,14.70
2016,08,12,03,53,14.70
2016,08,12,03,54,14.70
2016,08,12,03,55,14.70
2016,08,12,03,56,14.70
2016,08,12,03,57,14.70
2016,08,12,03,58,14.70
2016,08,12,03,59,14.70
2016,08,12,04,00,14.70
2016,08,12,04,01,14.70
2016,08,12,04,02,14.60
2016,08,12,04,03,14.60
2016,08,12,04,04,14.60
2016,08,12,04,05,14.60
2016,08,12,04,06,14.60
2016,08,12,04,07,14.60
2016,08,12,04,08,14.60
2016,08,12,04,09,14.60
2016,08,12,04,10,14.60
2016,08,12,04,11,14.60
2016,08,12,04,12,14.60
2016,08,12,04,13,14.60
2016,08,12,04,14,14.60
2016,08,12,04,15,14.60
2016,08,12,04,16,14.60
2016,08,12,04,17,14.60
2016,08,12,04,18,14.60
2016,08,12,04,19,14.60
2016,08,12,04,20,14.60
2016,08,12,04,21,14.60
2016,08,12,04,22,14.60
2016,08,12,04,23,14.50
2016,08,12,04,24,14.50
2016,08,12,04,25,14.40
2016,08,12,04,26,14.40
2016,08,12,04,27,14.40
2016,08,12,04,28,14.40
2016,08,12,04,29,14.30
2016,08,12,04,30,14.30
2016,08,12,04,31,14.30
2016,08,12,04,32,14.30
2016,08,12,04,33,14.30
2016,08,12,04,34,14.30
2016,08,12,04,35,14.20
2016,08,12,04,36,14.20
2016,08,12,04,37,14.30
2016,08,12,04,38,14.30
2016,08,12,04,39,14.30
2016,08,12,04,40,14.30
2016,08,12,04,41,14.30
2016,08,12,04,42,14.30
2016,08,12,04,43,14.30
2016,08,12,04,44,14.30
2016,08,12,04,45,14.30
2016,08,12,04,46,14.30
2016,08,12,04,47,14.30
2016,08,12,04,48,14.30
2016,08,12,04,49,14.30
2016,08,12,04,50,14.30
2016,08,12,04,51,14.30
2016,08,12,04,52,14.40
2016,08,12,04,53,14.30
2016,08,12,04,54,14.30
2016,08,12,04,55,14.30
2016,08,12,04,56,14.30
2016,08,12,04,57,14.20
2016,08,12,04,58,14.20
2016,08,12,04,59,14.20
2016,08,12,05,00,14.20
2016,08,12,05,01,14.20
2016,08,12,05,02,14.20
2016,08,12,05,03,14.20
2016,08,12,05,04,14.30
2016,08,12,05,05,14.30
2016,08,12,05,06,14.30
2016,08,12,05,07,14.20
2016,08,12,05,08,14.20
2016,08,12,05,09,14.20
2016,08,12,05,10,14.10
2016,08,12,05,11,14.10
2016,08,12,05,12,14.10
2016,08,12,05,13,14.10
2016,08,12,05,14,14.10
2016,08,12,05,15,14.10
2016,08,12,05,16,14.10
2016,08,12,05,17,14.10
2016,08,12,05,18,14.10
2016,08,12,05,19,14.10
2016,08,12,05,20,14.10
2016,08,12,05,21,14.10
2016,08,12,05,22,14.10
2016,08,12,05,23,14.10
2016,08,12,05,24,14.10
2016,08,12,05,25,14.00
2016,08,12,05,26,14.10
2016,08,12,05,27,14.10
2016,08,12,05,28,14.10
2016,08,12,05,29,14.10
2016,08,12,05,30,14.00
2016,08,12,05,31,14.00
2016,08,12,05,32,14.00
2016,08,12,05,33,14.00
2016,08,12,05,34,14.00
2016,08,12,05,35,14.00
2016,08,12,05,36,14.00
2016,08,12,05,37,13.90
2016,08,12,05,38,13.90
2016,08,12,05,39,13.90
2016,08,12,05,40,13.90
2016,08,12,05,41,13.80
2016,08,12,05,42,13.80
2016,08,12,05,43,13.80
2016,08,12,05,44,13.80
2016,08,12,05,45,13.80
2016,08,12,05,46,13.80
2016,08,12,05,47,13.80
2016,08,12,05,48,13.80
2016,08,12,05,49,13.80
2016,08,12,05,50,13.80
2016,08,12,05,51,13.80
2016,08,12,05,52,13.90
2016,08,12,05,53,13.90
2016,08,12,05,54,13.90
2016,08,12,05,55,13.90
2016,08,12,05,56,13.90
2016,08,12,05,57,13.80
2016,08,12,05,58,13.80
2016,08,12,05,59,13.80
2016,08,12,06,00,13.80
2016,08,12,06,01,13.80
2016,08,12,06,02,13.80
2016,08,12,06,03,13.70
2016,08,12,06,04,13.70
2016,08,12,06,05,13.70
2016,08,12,06,06,13.70
2016,08,12,06,07,13.70
2016,08,12,06,08,13.70
2016,08,12,06,09,13.70
2016,08,12,06,10,13.70
2016,08,12,06,11,13.70
2016,08,12,06,12,13.70
2016,08,12,06,13,13.70
2016,08,12,06,14,13.70
2016,08,12,06,15,13.70
2016,08,12,06,16,13.70
2016,08,12,06,17,13.60
2016,08,12,06,18,13.70
2016,08,12,06,19,13.60
2016,08,12,06,20,13.70
2016,08,12,06,21,13.70
2016,08,12,06,22,13.70
2016,08,12,06,23,13.70
2016,08,12,06,24,13.60
2016,08,12,06,25,13.60
2016,08,12,06,26,13.60
2016,08,12,06,27,13.60
2016,08,12,06,28,13.60
2016,08,12,06,29,13.60
2016,08,12,06,30,13.50
2016,08,12,06,31,13.50
2016,08,12,06,32,13.50
2016,08,12,06,33,13.50
2016,08,12,06,34,13.50
2016,08,12,06,35,13.50
2016,08,12,06,36,13.50
2016,08,12,06,37,13.60
2016,08,12,06,38,13.50
2016,08,12,06,39,13.60
2016,08,12,06,40,13.50
2016,08,12,06,41,13.50
2016,08,12,06,42,13.50
2016,08,12,06,43,13.50
2016,08,12,06,44,13.60
2016,08,12,06,45,13.60
2016,08,12,06,46,13.60
2016,08,12,06,47,13.60
2016,08,12,06,48,13.60
2016,08,12,06,49,13.60
2016,08,12,06,50,13.60
2016,08,12,06,51,13.60
2016,08,12,06,52,13.60
2016,08,12,06,53,13.60
2016,08,12,06,54,13.60
2016,08,12,06,55,13.60
2016,08,12,06,56,13.60
2016,08,12,06,57,13.60
2016,08,12,06,58,13.60
2016,08,12,06,59,13.60
2016,08,12,07,00,13.60
2016,08,12,07,01,13.60
2016,08,12,07,02,13.50
2016,08,12,07,03,13.50
2016,08,12,07,04,13.50
2016,08,12,07,05,13.40
2016,08,12,07,06,13.40
2016,08,12,07,07,13.40
2016,08,12,07,08,13.40
2016,08,12,07,09,13.40
2016,08,12,07,10,13.40
2016,08,12,07,11,13.40
2016,08,12,07,12,13.40
2016,08,12,07,13,13.40
2016,08,12,07,14,13.40
2016,08,12,07,15,13.40
2016,08,12,07,16,13.40
2016,08,12,07,17,13.40
2016,08,12,07,18,13.40
2016,08,12,07,19,13.40
2016,08,12,07,20,13.50
2016,08,12,07,21,13.50
2016,08,12,07,22,13.50
2016,08,12,07,23,13.60
2016,08,12,07,24,13.60
2016,08,12,07,25,13.60
2016,08,12,07,26,13.60
2016,08,12,07,27,13.60
2016,08,12,07,28,13.60
2016,08,12,07,29,13.60
2016,08,12,07,30,13.60
2016,08,12,07,31,13.60
2016,08,12,07,32,13.60
2016,08,12,07,33,13.70
2016,08,12,07,34,13.70
2016,08,12,07,35,13.80
2016,08,12,07,36,13.80
2016,08,12,07,37,13.90
2016,08,12,07,38,14.00
2016,08,12,07,39,14.00
2016,08,12,07,40,14.10
2016,08,12,07,41,14.10
2016,08,12,07,42,14.10
2016,08,12,07,43,14.10
2016,08,12,07,44,14.20
2016,08,12,07,45,14.20
2016,08,12,07,46,14.30
2016,08,12,07,47,14.30
2016,08,12,07,48,14.40
2016,08,12,07,49,14.50
2016,08,12,07,50,14.50
2016,08,12,07,51,14.60
2016,08,12,07,52,14.70
2016,08,12,07,53,14.80
2016,08,12,07,54,14.80
2016,08,12,07,55,14.90
2016,08,12,07,56,15.00
2016,08,12,07,57,15.10
2016,08,12,07,58,15.10
2016,08,12,07,59,15.20
2016,08,12,08,00,15.20
2016,08,12,08,01,15.30
2016,08,12,08,02,15.30
2016,08,12,08,03,15.40
2016,08,12,08,04,15.50
2016,08,12,08,05,15.50
2016,08,12,08,06,15.60
2016,08,12,08,07,15.70
2016,08,12,08,08,15.80
2016,08,12,08,09,15.80
2016,08,12,08,10,15.80
2016,08,12,08,11,15.80
2016,08,12,08,12,15.80
2016,08,12,08,13,15.80
2016,08,12,08,14,15.80
2016,08,12,08,15,15.90
2016,08,12,08,16,15.90
2016,08,12,08,17,16.00
2016,08,12,08,18,16.10
2016,08,12,08,19,16.20
2016,08,12,08,20,16.30
2016,08,12,08,21,16.40
2016,08,12,08,22,16.50
2016,08,12,08,23,16.70
2016,08,12,08,24,16.80
2016,08,12,08,25,16.90
2016,08,12,08,26,17.10
2016,08,12,08,27,17.20
2016,08,12,08,28,17.30
2016,08,12,08,29,17.40
2016,08,12,08,30,17.50
2016,08,12,08,31,17.60
2016,08,12,08,32,17.70
2016,08,12,08,33,17.80
2016,08,12,08,34,17.90
2016,08,12,08,35,18.00
2016,08,12,08,36,18.10
2016,08,12,08,37,18.20
2016,08,12,08,38,18.30
2016,08,12,08,39,18.40
2016,08,12,08,40,18.50
2016,08,12,08,41,18.60
2016,08,12,08,42,18.70
2016,08,12,08,43,18.80
2016,08,12,08,44,18.90
2016,08,12,08,45,19.00
2016,08,12,08,46,19.10
2016,08,12,08,47,19.10
2016,08,12,08,48,19.20
2016,08,12,08,49,19.20
2016,08,12,08,50,19.30
2016,08,12,08,51,19.40
2016,08,12,08,52,19.50
2016,08,12,08,53,19.60
2016,08,12,08,54,19.70
2016,08,12,08,55,19.80
2016,08,12,08,56,19.90
2016,08,12,08,57,20.00
2016,08,12,08,58,20.00
2016,08,12,08,59,20.00
2016,08,12,09,00,19.90
2016,08,12,09,01,19.90
2016,08,12,09,02,19.90
2016,08,12,09,03,19.80
2016,08,12,09,04,19.70
2016,08,12,09,05,19.70
2016,08,12,09,06,19.60
2016,08,12,09,07,19.50
2016,08,12,09,08,19.40
2016,08,12,09,09,19.40
2016,08,12,09,10,19.40
2016,08,12,09,11,19.40
2016,08,12,09,12,19.50
2016,08,12,09,13,19.60
2016,08,12,09,14,19.70
2016,08,12,09,15,19.80
2016,08,12,09,16,20.00
2016,08,12,09,17,20.10
2016,08,12,09,18,20.20
2016,08,12,09,19,20.30
2016,08,12,09,20,20.40
2016,08,12,09,21,20.40
2016,08,12,09,22,20.50
2016,08,12,09,23,20.50
2016,08,12,09,24,20.50
2016,08,12,09,25,20.60
2016,08,12,09,26,20.70
2016,08,12,09,27,20.70
2016,08,12,09,28,20.80
2016,08,12,09,29,20.80
2016,08,12,09,30,20.90
2016,08,12,09,31,20.90
2016,08,12,09,32,21.00
2016,08,12,09,33,21.10
2016,08,12,09,34,21.10
2016,08,12,09,35,21.20
2016,08,12,09,36,21.30
2016,08,12,09,37,21.40
2016,08,12,09,38,21.40
2016,08,12,09,39,21.50
2016,08,12,09,40,21.60
2016,08,12,09,41,21.60
2016,08,12,09,42,21.60
2016,08,12,09,43,21.70
2016,08,12,09,44,21.70
2016,08,12,09,45,21.70
2016,08,12,09,46,21.70
2016,08,12,09,47,21.70
2016,08,12,09,48,21.80
2016,08,12,09,49,21.80
2016,08,12,09,50,21.80
2016,08,12,09,51,21.80
2016,08,12,09,52,21.80
2016,08,12,09,53,21.90
2016,08,12,09,54,21.90
2016,08,12,09,55,22.00
2016,08,12,09,56,22.00
2016,08,12,09,57,22.00
2016,08,12,09,58,22.00
2016,08,12,09,59,22.00
2016,08,12,10,00,22.00
2016,08,12,10,01,22.00
2016,08,12,10,02,22.10
2016,08,12,10,03,22.20
2016,08,12,10,04,22.30
2016,08,12,10,05,22.40
2016,08,12,10,06,22.50
2016,08,12,10,07,22.60
2016,08,12,10,08,22.70
2016,08,12,10,09,22.70
2016,08,12,10,10,22.70
2016,08,12,10,11,22.70
2016,08,12,10,12,22.70
2016,08,12,10,13,22.80
2016,08,12,10,14,22.80
2016,08,12,10,15,22.80
2016,08,12,10,16,22.80
2016,08,12,10,17,22.70
2016,08,12,10,18,22.80
2016,08,12,10,19,22.80
2016,08,12,10,20,22.80
2016,08,12,10,21,22.80
2016,08,12,10,22,22.90
2016,08,12,10,23,22.90
2016,08,12,10,24,23.00
2016,08,12,10,25,23.00
2016,08,12,10,26,23.00
2016,08,12,10,27,23.00
2016,08,12,10,28,23.00
2016,08,12,10,29,23.00
2016,08,12,10,30,23.10
2016,08,12,10,31,23.10
2016,08,12,10,32,23.20
2016,08,12,10,33,23.20
2016,08,12,10,34,23.30
2016,08,12,10,35,23.30
2016,08,12,10,36,23.30
2016,08,12,10,37,23.30
2016,08,12,10,38,23.30
2016,08,12,10,39,23.30
2016,08,12,10,40,23.30
2016,08,12,10,41,23.30
2016,08,12,10,42,23.40
2016,08,12,10,43,23.40
2016,08,12,10,44,23.50
2016,08,12,10,45,23.50
2016,08,12,10,46,23.60
2016,08,12,10,47,23.60
2016,08,12,10,48,23.60
2016,08,12,10,49,23.70
2016,08,12,10,50,23.80
2016,08,12,10,51,23.90
2016,08,12,10,52,24.10
2016,08,12,10,53,24.20
2016,08,12,10,54,24.30
2016,08,12,10,55,24.40
2016,08,12,10,56,24.50
2016,08,12,10,57,24.60
2016,08,12,10,58,24.60
2016,08,12,10,59,24.60
2016,08,12,11,00,24.50
2016,08,12,11,01,24.50
2016,08,12,11,02,24.50
2016,08,12,11,03,24.60
2016,08,12,11,04,24.70
2016,08,12,11,05,24.80
2016,08,12,11,06,24.80
2016,08,12,11,07,24.80
2016,08,12,11,08,24.80
2016,08,12,11,09,24.70
2016,08,12,11,10,24.70
2016,08,12,11,11,24.70
2016,08,12,11,12,24.70
2016,08,12,11,13,24.70
2016,08,12,11,14,24.70
2016,08,12,11,15,24.70
2016,08,12,11,16,24.70
2016,08,12,11,17,24.70
2016,08,12,11,18,24.70
2016,08,12,11,19,24.70
2016,08,12,11,20,24.70
2016,08,12,11,21,24.80
2016,08,12,11,22,24.80
2016,08,12,11,23,24.80
2016,08,12,11,24,24.90
2016,08,12,11,25,25.00
2016,08,12,11,26,25.00
2016,08,12,11,27,25.10
2016,08,12,11,28,25.10
2016,08,12,11,29,25.20
2016,08,12,11,30,25.20
2016,08,12,11,31,25.30
2016,08,12,11,32,25.30
2016,08,12,11,33,25.30
2016,08,12,11,34,25.30
2016,08,12,11,35,25.30
2016,08,12,11,36,25.30
2016,08,12,11,37,25.40
2016,08,12,11,38,25.40
2016,08,12,11,39,25.50
2016,08,12,11,40,25.50
2016,08,12,11,41,25.50
2016,08,12,11,42,25.40
2016,08,12,11,43,25.40
2016,08,12,11,44,25.50
2016,08,12,11,45,25.50
2016,08,12,11,46,25.60
2016,08,12,11,47,25.50
2016,08,12,11,48,25.50
2016,08,12,11,49,25.50
2016,08,12,11,50,25.40
2016,08,12,11,51,25.40
2016,08,12,11,52,25.30
2016,08,12,11,53,25.30
2016,08,12,11,54,25.20
2016,08,12,11,55,25.20
2016,08,12,11,56,25.20
2016,08,12,11,57,25.20
2016,08,12,11,58,25.20
2016,08,12,11,59,25.20
2016,08,12,12,00,25.20
2016,08,12,12,01,25.20
2016,08,12,12,02,25.20
2016,08,12,12,03,25.20
2016,08,12,12,04,25.30
2016,08,12,12,05,25.30
2016,08,12,12,06,25.30
2016,08,12,12,07,25.30
2016,08,12,12,08,25.30
2016,08,12,12,09,25.30
2016,08,12,12,10,25.40
2016,08,12,12,11,25.40
2016,08,12,12,12,25.50
2016,08,12,12,13,25.60
2016,08,12,12,14,25.60
2016,08,12,12,15,25.70
2016,08,12,12,16,25.70
2016,08,12,12,17,25.70
2016,08,12,12,18,25.70
2016,08,12,12,19,25.80
2016,08,12,12,20,25.80
2016,08,12,12,21,25.80
2016,08,12,12,22,25.80
2016,08,12,12,23,25.70
2016,08,12,12,24,25.70
2016,08,12,12,25,25.70
2016,08,12,12,26,25.70
2016,08,12,12,27,25.80
2016,08,12,12,28,25.80
2016,08,12,12,29,25.90
2016,08,12,12,30,26.00
2016,08,12,12,31,26.00
2016,08,12,12,32,26.10
2016,08,12,12,33,26.10
2016,08,12,12,34,26.00
2016,08,12,12,35,26.00
2016,08,12,12,36,25.90
2016,08,12,12,37,25.90
2016,08,12,12,38,25.90
2016,08,12,12,39,25.90
2016,08,12,12,40,25.90
2016,08,12,12,41,26.00
2016,08,12,12,42,26.00
2016,08,12,12,43,25.90
2016,08,12,12,44,26.00
2016,08,12,12,45,26.10
2016,08,12,12,46,26.10
2016,08,12,12,47,26.20
2016,08,12,12,48,26.30
2016,08,12,12,49,26.30
2016,08,12,12,50,26.30
2016,08,12,12,51,26.30
2016,08,12,12,52,26.30
2016,08,12,12,53,26.30
2016,08,12,12,54,26.40
2016,08,12,12,55,26.40
2016,08,12,12,56,26.40
2016,08,12,12,57,26.50
2016,08,12,12,58,26.50
2016,08,12,12,59,26.50
2016,08,12,13,00,26.60
2016,08,12,13,01,26.60
2016,08,12,13,02,26.60
2016,08,12,13,03,26.60
2016,08,12,13,04,26.60
2016,08,12,13,05,26.70
2016,08,12,13,06,26.70
2016,08,12,13,07,26.70
2016,08,12,13,08,26.70
2016,08,12,13,09,26.80
2016,08,12,13,10,26.80
2016,08,12,13,11,26.80
2016,08,12,13,12,26.80
2016,08,12,13,13,26.90
2016,08,12,13,14,26.90
2016,08,12,13,15,26.90
2016,08,12,13,16,26.90
2016,08,12,13,17,26.90
2016,08,12,13,18,26.90
2016,08,12,13,19,26.90
2016,08,12,13,20,26.90
2016,08,12,13,21,26.90
2016,08,12,13,22,26.90
2016,08,12,13,23,26.90
2016,08,12,13,24,26.90
2016,08,12,13,25,26.90
2016,08,12,13,26,26.90
2016,08,12,13,27,26.90
2016,08,12,13,28,27.00
2016,08,12,13,29,27.00
2016,08,12,13,30,27.10
2016,08,12,13,31,27.10
2016,08,12,13,32,27.10
2016,08,12,13,33,27.20
2016,08,12,13,34,27.20
2016,08,12,13,35,27.20
2016,08,12,13,36,27.10
2016,08,12,13,37,27.10
2016,08,12,13,38,27.10
2016,08,12,13,39,27.10
2016,08,12,13,40,27.10
2016,08,12,13,41,27.10
2016,08,12,13,42,27.10
2016,08,12,13,43,27.20
2016,08,12,13,44,27.20
2016,08,12,13,45,27.30
2016,08,12,13,46,27.40
2016,08,12,13,47,27.40
2016,08,12,13,48,27.50
2016,08,12,13,49,27.50
2016,08,12,13,50,27.60
2016,08,12,13,51,27.60
2016,08,12,13,52,27.60
2016,08,12,13,53,27.60
2016,08,12,13,54,27.60
2016,08,12,13,55,27.50
2016,08,12,13,56,27.50
2016,08,12,13,57,27.50
2016,08,12,13,58,27.60
2016,08,12,13,59,27.60
2016,08,12,14,00,27.60
2016,08,12,14,01,27.60
2016,08,12,14,02,27.60
2016,08,12,14,03,27.70
2016,08,12,14,04,27.70
2016,08,12,14,05,27.80
2016,08,12,14,06,27.80
2016,08,12,14,07,27.80
2016,08,12,14,08,27.80
2016,08,12,14,09,27.90
2016,08,12,14,10,27.90
2016,08,12,14,11,27.80
2016,08,12,14,12,27.80
2016,08,12,14,13,27.90
2016,08,12,14,14,27.90
2016,08,12,14,15,27.90
2016,08,12,14,16,27.90
2016,08,12,14,17,27.90
2016,08,12,14,18,27.90
2016,08,12,14,19,27.90
2016,08,12,14,20,27.90
2016,08,12,14,21,27.90
2016,08,12,14,22,27.90
2016,08,12,14,23,27.90
2016,08,12,14,24,27.90
2016,08,12,14,25,27.90
2016,08,12,14,26,27.90
2016,08,12,14,27,27.90
2016,08,12,14,28,27.80
2016,08,12,14,29,27.80
2016,08,12,14,30,27.90
2016,08,12,14,31,27.80
2016,08,12,14,32,27.80
2016,08,12,14,33,27.80
2016,08,12,14,34,27.90
2016,08,12,14,35,27.90
2016,08,12,14,36,27.80
2016,08,12,14,37,27.80
2016,08,12,14,38,27.80
2016,08,12,14,39,27.80
2016,08,12,14,40,27.90
2016,08,12,14,41,27.90
2016,08,12,14,42,27.90
2016,08,12,14,43,28.00
2016,08,12,14,44,28.00
2016,08,12,14,45,28.10
2016,08,12,14,46,28.00
2016,08,12,14,47,28.00
2016,08,12,14,48,28.00
2016,08,12,14,49,27.90
2016,08,12,14,50,27.90
2016,08,12,14,51,27.90
2016,08,12,14,52,28.00
2016,08,12,14,53,28.00
2016,08,12,14,54,28.00
2016,08,12,14,55,28.00
2016,08,12,14,56,28.10
2016,08,12,14,57,28.00
2016,08,12,14,58,28.00
2016,08,12,14,59,28.00
2016,08,12,15,00,28.00
2016,08,12,15,01,27.90
2016,08,12,15,02,27.90
2016,08,12,15,03,27.90
2016,08,12,15,04,27.90
2016,08,12,15,05,27.90
2016,08,12,15,06,27.90
2016,08,12,15,07,27.80
2016,08,12,15,08,27.70
2016,08,12,15,09,27.70
2016,08,12,15,10,27.60
2016,08,12,15,11,27.60
2016,08,12,15,12,27.50
2016,08,12,15,13,27.50
2016,08,12,15,14,27.40
2016,08,12,15,15,27.40
2016,08,12,15,16,27.50
2016,08,12,15,17,27.50
2016,08,12,15,18,27.50
2016,08,12,15,19,27.50
2016,08,12,15,20,27.40
2016,08,12,15,21,27.30
2016,08,12,15,22,27.30
2016,08,12,15,23,27.20
2016,08,12,15,24,27.20
2016,08,12,15,25,27.30
2016,08,12,15,26,27.30
2016,08,12,15,27,27.30
2016,08,12,15,28,27.30
2016,08,12,15,29,27.30
2016,08,12,15,30,27.30
2016,08,12,15,31,27.30
2016,08,12,15,32,27.20
2016,08,12,15,33,27.10
2016,08,12,15,34,27.10
2016,08,12,15,35,27.00
2016,08,12,15,36,27.10
2016,08,12,15,37,27.10
2016,08,12,15,38,27.20
2016,08,12,15,39,27.20
2016,08,12,15,40,27.20
2016,08,12,15,41,27.20
2016,08,12,15,42,27.10
2016,08,12,15,43,27.10
2016,08,12,15,44,27.10
2016,08,12,15,45,27.20
2016,08,12,15,46,27.20
2016,08,12,15,47,27.20
2016,08,12,15,48,27.20
2016,08,12,15,49,27.20
2016,08,12,15,50,27.20
2016,08,12,15,51,27.20
2016,08,12,15,52,27.20
2016,08,12,15,53,27.20
2016,08,12,15,54,27.20
2016,08,12,15,55,27.20
2016,08,12,15,56,27.20
2016,08,12,15,57,27.30
2016,08,12,15,58,27.20
2016,08,12,15,59,27.10
2016,08,12,16,00,27.00
2016,08,12,16,01,26.80
2016,08,12,16,02,26.70
2016,08,12,16,03,26.70
2016,08,12,16,04,26.70
2016,08,12,16,05,26.60
2016,08,12,16,06,26.60
2016,08,12,16,07,26.60
2016,08,12,16,08,26.60
2016,08,12,16,09,26.70
2016,08,12,16,10,26.70
2016,08,12,16,11,26.70
2016,08,12,16,12,26.70
2016,08,12,16,13,26.70
2016,08,12,16,14,26.60
2016,08,12,16,15,26.60
2016,08,12,16,16,26.60
2016,08,12,16,17,26.70
2016,08,12,16,18,26.70
2016,08,12,16,19,26.80
2016,08,12,16,20,26.80
2016,08,12,16,21,26.80
2016,08,12,16,22,26.90
2016,08,12,16,23,26.90
2016,08,12,16,24,26.90
2016,08,12,16,25,26.80
2016,08,12,16,26,26.80
2016,08,12,16,27,26.90
2016,08,12,16,28,26.90
2016,08,12,16,29,27.00
2016,08,12,16,30,27.10
2016,08,12,16,31,27.10
2016,08,12,16,32,27.20
2016,08,12,16,33,27.20
2016,08,12,16,34,27.30
2016,08,12,16,35,27.30
2016,08,12,16,36,27.30
2016,08,12,16,37,27.30
2016,08,12,16,38,27.40
2016,08,12,16,39,27.40
2016,08,12,16,40,27.40
2016,08,12,16,41,27.40
2016,08,12,16,42,27.40
2016,08,12,16,43,27.30
2016,08,12,16,44,27.30
2016,08,12,16,45,27.40
2016,08,12,16,46,27.40
2016,08,12,16,47,27.40
2016,08,12,16,48,27.40
2016,08,12,16,49,27.40
2016,08,12,16,50,27.40
2016,08,12,16,51,27.40
2016,08,12,16,52,27.40
2016,08,12,16,53,27.40
2016,08,12,16,54,27.40
2016,08,12,16,55,27.40
2016,08,12,16,56,27.30
2016,08,12,16,57,27.30
2016,08,12,16,58,27.30
2016,08,12,16,59,27.30
2016,08,12,17,00,27.30
2016,08,12,17,01,27.30
2016,08,12,17,02,27.30
2016,08,12,17,03,27.30
2016,08,12,17,04,27.30
2016,08,12,17,05,27.30
2016,08,12,17,06,27.30
2016,08,12,17,07,27.30
2016,08,12,17,08,27.30
2016,08,12,17,09,27.30
2016,08,12,17,10,27.30
2016,08,12,17,11,27.40
2016,08,12,17,12,27.50
2016,08,12,17,13,27.60
2016,08,12,17,14,27.60
2016,08,12,17,15,27.50
2016,08,12,17,16,27.50
2016,08,12,17,17,27.50
2016,08,12,17,18,27.50
2016,08,12,17,19,27.40